Date,TemperatureHighF,TemperatureAvgF,TemperatureLowF,DewpointHighF,DewpointAvgF,DewpointLowF,HumidityHigh,HumidityAvg,HumidityLow,PressureMaxIn,PressureMinIn,WindSpeedMaxMPH,WindSpeedAvgMPH,GustSpeedMaxMPH,PrecipitationSumIn
2013-1-1,47.8,42.9,36.5,46.2,39.1,34.1,95,86,73,30.05,29.50,11,3,15,0.07
2013-1-2,51.2,44.0,36.0,49.7,42.3,33.8,96,94,88,30.33,30.05,6,1,15,0.01
2013-1-3,52.2,50.6,47.9,49.8,48.7,46.8,97,93,90,30.61,30.33,7,2,12,0.00
2013-1-4,50.5,49.0,46.5,47.6,45.8,44.2,94,89,83,30.66,30.60,8,3,13,0.00
2013-1-5,51.1,48.1,43.4,49.5,46.4,42.1,98,94,88,30.60,30.51,7,1,11,0.00
2013-1-6,47.1,44.9,42.1,46.1,44.1,41.3,98,97,94,30.53,30.39,3,0,5,0.01
2013-1-7,47.9,46.2,44.6,46.0,44.6,43.2,96,94,91,30.39,30.26,4,1,8,0.00
2013-1-8,52.5,49.8,46.7,48.6,46.9,44.3,97,89,84,30.27,30.18,4,1,10,0.04
2013-1-9,48.9,44.2,31.9,48.4,42.0,30.8,98,92,76,30.19,30.08,3,-3,9,0.07
2013-1-10,39.0,36.1,31.4,37.2,34.8,30.5,98,95,91,30.07,29.93,4,0,7,0.01
2013-1-11,43.7,37.7,33.2,39.6,36.0,31.9,97,93,84,30.10,29.98,4,0,6,0.00
2013-1-12,41.2,38.9,35.2,37.9,34.3,29.1,96,84,62,29.98,29.85,10,4,17,0.13
2013-1-13,39.3,35.8,32.5,35.6,30.6,27.8,87,81,74,30.14,29.95,7,1,14,0.00
2013-1-14,38.4,34.6,31.5,36.7,32.4,28.8,96,92,84,30.11,29.64,9,-2,16,0.13
2013-1-15,37.0,34.2,27.9,33.0,31.1,26.6,95,88,82,29.88,29.64,9,2,16,0.00
2013-1-16,33.9,29.6,26.1,30.6,27.9,24.8,96,93,87,30.03,29.85,4,0,6,0.00
2013-1-17,36.9,31.8,24.6,32.5,28.8,23.5,97,89,76,30.09,29.89,5,1,8,0.00
2013-1-18,35.9,31.4,28.7,29.6,28.3,26.6,96,88,75,29.89,29.43,9,1,15,0.01
2013-1-19,34.0,32.2,30.8,31.6,28.6,27.1,93,86,83,29.49,29.41,8,3,16,0.00
2013-1-20,32.2,31.0,30.0,30.7,28.0,26.6,95,89,83,29.48,29.28,6,2,12,0.00
2013-1-21,36.7,31.9,26.5,32.4,29.6,24.8,96,91,80,29.50,29.28,3,0,4,0.05
2013-1-22,37.3,33.8,24.1,34.9,31.4,22.6,97,91,79,29.68,29.51,11,4,19,0.31
2013-1-23,37.4,36.1,35.1,33.0,32.2,31.0,89,86,81,29.81,29.68,9,4,15,0.01
2013-1-24,36.4,35.1,33.9,32.0,30.3,26.5,90,83,67,30.14,29.81,6,1,11,0.00
2013-1-25,38.5,35.1,32.3,36.1,30.7,28.0,92,84,77,30.13,29.57,11,4,17,0.02
2013-1-26,46.9,41.9,36.6,43.5,39.0,34.8,97,90,77,29.83,29.55,9,2,20,0.14
2013-1-27,50.0,45.3,39.2,49.5,41.4,35.6,98,87,62,29.62,29.28,13,4,23,0.09
2013-1-28,51.1,43.6,35.5,48.9,40.7,33.4,95,90,81,29.83,29.52,11,2,24,0.06
2013-1-29,56.5,53.1,48.7,53.9,51.0,46.0,97,92,82,29.66,29.55,7,2,17,0.03
2013-1-30,54.1,49.6,44.5,52.7,43.8,38.3,96,81,62,30.05,29.51,15,5,25,0.10
2013-1-31,50.5,47.8,44.5,46.2,41.6,38.9,94,79,66,30.05,29.81,19,4,27,0.09
2013-2-1,46.4,42.3,38.1,42.3,39.4,35.8,95,90,80,29.85,29.45,8,1,14,0.20
2013-2-2,41.8,38.9,32.9,38.0,32.1,27.4,92,77,62,30.25,29.60,11,3,20,0.00
2013-2-3,49.1,40.9,30.0,46.5,37.7,25.9,93,88,79,30.27,29.91,6,1,13,0.00
2013-2-4,50.4,47.7,42.6,47.0,40.7,35.4,91,77,60,29.95,29.72,15,5,27,0.00
2013-2-5,44.1,40.3,36.3,39.3,33.7,28.5,93,78,59,29.72,29.34,15,6,28,0.04
2013-2-6,43.2,40.6,36.4,39.1,34.3,28.8,90,78,68,30.07,29.37,10,4,23,0.00
2013-2-7,41.7,37.5,33.4,36.1,31.9,27.8,93,80,68,30.12,29.99,9,3,16,0.00
2013-2-8,42.4,37.9,32.6,36.8,33.5,30.8,94,84,67,30.15,30.03,6,2,11,0.01
2013-2-9,39.0,37.1,34.4,36.6,34.7,31.5,95,91,83,30.16,29.86,4,1,9,0.02
2013-2-10,41.8,38.6,33.3,40.1,37.2,32.3,97,95,92,29.86,29.26,10,4,17,0.42
2013-2-11,35.0,34.0,33.1,34.2,33.2,32.3,97,97,97,29.78,29.28,7,2,11,0.25
2013-2-12,36.2,34.9,33.8,33.7,30.9,28.2,97,85,76,30.14,29.77,4,1,9,0.00
2013-2-13,40.6,35.6,33.9,38.6,30.4,25.4,93,81,67,30.21,29.98,10,3,16,0.02
2013-2-14,51.4,46.1,40.3,46.5,42.0,37.0,97,86,68,29.98,29.75,10,4,17,0.05
2013-2-15,49.1,41.0,33.8,40.9,36.3,32.1,97,84,62,30.21,29.98,7,1,10,0.00
2013-2-16,52.4,43.2,37.6,41.1,37.2,33.1,93,80,50,30.25,30.19,4,0,6,0.00
2013-2-17,50.2,39.2,29.2,40.6,34.6,27.9,97,85,52,30.21,30.09,9,2,13,0.00
2013-2-18,48.2,39.8,33.3,37.9,35.0,31.0,95,84,61,30.14,30.09,7,2,12,0.01
2013-2-19,49.9,37.1,26.6,38.9,32.6,25.4,97,85,56,30.14,30.03,3,0,4,0.00
2013-2-20,41.5,37.8,35.1,38.4,32.6,27.9,96,82,67,30.25,30.09,11,4,20,0.02
2013-2-21,36.7,34.8,33.2,28.5,24.5,21.7,73,66,58,30.27,30.16,11,2,19,0.00
2013-2-22,35.7,34.1,32.9,26.9,24.3,21.7,75,67,60,30.17,30.10,10,3,19,0.00
2013-2-23,36.3,34.1,32.5,29.5,26.6,23.1,86,74,61,30.21,30.09,6,1,12,0.00
2013-2-24,36.4,34.6,32.9,29.9,28.6,27.2,87,78,72,30.28,30.20,4,1,12,0.00
2013-2-25,40.1,37.9,34.6,36.3,34.0,28.7,89,86,78,30.38,30.26,8,2,15,0.00
2013-2-26,41.0,39.2,36.8,38.9,37.3,34.8,95,93,88,30.55,30.38,6,2,15,0.02
2013-2-27,43.9,38.8,36.0,37.2,34.7,33.1,94,86,71,30.58,30.47,6,2,12,0.00
2013-2-28,47.2,39.8,34.7,38.7,35.1,32.1,91,83,71,30.48,30.32,7,2,14,0.00
2013-3-1,44.4,40.6,36.8,40.7,35.1,31.0,96,81,66,30.40,30.36,8,2,15,0.02
2013-3-2,40.9,37.0,27.2,33.1,30.8,24.9,92,78,71,30.40,30.27,5,-3,11,0.00
2013-3-3,45.9,36.6,25.2,37.4,32.5,23.4,96,86,68,30.29,30.10,8,1,15,0.00
2013-3-4,49.7,40.7,34.8,38.6,35.4,32.3,93,82,65,30.10,29.73,8,2,14,0.00
2013-3-5,60.6,45.1,30.3,46.0,38.3,29.2,97,79,55,29.73,29.57,8,1,11,0.00
2013-3-6,56.7,50.3,43.7,45.7,43.0,38.8,87,76,65,29.57,29.49,6,1,10,0.01
2013-3-7,49.9,47.8,45.8,48.5,46.3,43.5,97,94,87,29.50,29.36,5,1,9,0.21
2013-3-8,50.8,49.1,47.0,49.7,48.3,46.1,98,97,96,29.54,29.37,5,1,9,0.28
2013-3-9,46.9,43.5,39.1,46.0,41.3,35.3,97,92,85,29.67,29.53,2,0,6,0.02
2013-3-10,39.4,37.0,34.2,35.5,32.5,28.6,89,84,78,29.74,29.66,10,3,18,0.00
2013-3-11,34.2,31.9,29.3,29.3,24.5,20.2,84,74,61,29.76,29.72,16,7,31,0.00
2013-3-12,40.7,34.3,28.4,32.7,23.9,17.8,86,67,47,29.82,29.74,16,5,26,0.00
2013-3-13,45.3,38.0,31.7,32.0,29.7,25.8,90,73,49,29.95,29.80,8,2,13,0.00
2013-3-14,44.7,36.7,27.5,32.9,27.8,23.7,95,72,45,30.03,29.92,6,1,11,0.00
2013-3-15,48.7,42.8,36.4,43.1,38.5,27.3,93,85,69,29.92,29.55,8,3,15,0.15
2013-3-16,46.7,44.1,42.5,43.6,41.1,38.6,95,89,84,29.55,29.28,12,4,21,0.07
2013-3-17,44.9,40.0,32.6,41.8,37.7,31.5,96,91,82,29.33,29.16,9,-2,17,0.21
2013-3-18,45.2,37.6,29.6,43.3,36.4,28.9,98,95,90,29.36,29.22,7,0,9,0.15
2013-3-19,47.5,40.8,36.5,39.7,37.0,34.8,96,87,68,29.51,29.36,7,1,10,0.01
2013-3-20,45.0,39.7,36.2,38.7,36.2,34.1,94,87,74,30.00,29.50,5,1,8,0.00
2013-3-21,45.2,39.9,35.2,35.8,33.9,32.3,90,79,65,30.03,29.91,11,4,18,0.03
2013-3-22,42.3,39.0,36.5,36.4,34.9,32.8,92,85,77,29.91,29.72,15,7,27,0.17
2013-3-23,38.4,35.0,33.7,36.0,33.8,32.7,97,95,89,29.87,29.74,11,5,19,0.11
2013-3-24,35.0,33.4,31.8,32.8,28.4,24.4,92,82,66,29.95,29.86,11,4,22,0.00
2013-3-25,35.0,34.2,33.2,27.3,25.8,24.3,75,71,65,29.98,29.92,11,4,22,0.00
2013-3-26,35.3,34.3,33.4,27.7,25.7,24.3,77,70,65,29.95,29.88,10,3,18,0.00
2013-3-27,40.1,35.9,31.7,27.9,26.1,23.8,83,68,57,29.88,29.84,10,2,16,0.00
2013-3-28,39.9,35.5,27.8,30.9,26.4,22.4,92,70,52,29.94,29.86,9,2,15,0.00
2013-3-29,42.5,36.3,29.0,28.9,26.0,23.1,83,67,48,29.92,29.77,9,2,19,0.00
2013-3-30,42.0,38.3,34.1,32.2,29.3,27.4,82,70,59,29.97,29.79,7,2,15,0.00
2013-3-31,41.5,38.5,31.8,29.8,26.9,23.8,80,64,52,29.97,29.89,8,3,13,0.00
2013-4-1,42.8,37.6,34.1,30.4,27.6,23.9,82,68,51,29.89,29.82,13,4,22,0.00
2013-4-2,46.5,38.8,31.1,31.5,25.0,17.9,86,61,33,30.05,29.88,12,4,22,0.00
2013-4-3,40.9,36.9,32.1,31.2,26.8,24.0,88,68,54,30.07,29.99,14,4,23,0.00
2013-4-4,37.9,36.2,33.6,34.1,29.4,24.5,92,77,61,29.99,29.90,10,3,19,0.06
2013-4-5,46.2,39.7,35.4,31.9,28.7,22.8,82,66,40,30.11,29.90,12,3,21,0.00
2013-4-6,52.0,41.4,30.9,33.6,29.8,26.3,91,66,38,30.27,30.11,8,1,14,0.00
2013-4-7,50.9,40.7,27.1,34.8,28.3,21.8,93,64,33,30.28,29.87,8,2,13,0.00
2013-4-8,50.5,43.8,39.4,35.8,32.2,27.0,82,65,42,29.87,29.54,11,5,21,0.00
2013-4-9,48.7,43.6,39.1,42.7,39.4,35.8,93,85,74,29.54,29.38,8,3,13,0.08
2013-4-10,50.7,44.1,37.2,42.7,39.4,34.6,94,84,68,29.72,29.41,10,-1,16,0.23
2013-4-11,57.2,46.9,42.6,48.2,44.4,41.8,97,91,69,29.50,29.35,10,2,17,0.09
2013-4-12,52.2,47.9,44.2,48.6,45.3,41.7,96,91,82,29.74,29.30,9,2,20,0.29
2013-4-13,53.4,48.2,38.4,51.1,45.4,36.3,96,90,74,29.91,29.74,11,2,17,0.12
2013-4-14,68.2,58.5,52.2,53.8,50.6,46.6,96,76,56,29.95,29.86,9,3,21,0.00
2013-4-15,60.8,54.9,48.8,50.2,48.0,44.8,89,78,65,30.06,29.94,6,-2,13,0.00
2013-4-16,63.0,54.9,49.1,49.1,46.2,42.3,93,74,48,30.08,29.91,9,2,15,0.00
2013-4-17,66.5,56.3,48.8,53.2,50.1,45.2,96,81,59,30.08,29.76,9,3,18,0.00
2013-4-18,59.4,51.3,45.7,46.7,41.6,34.3,90,70,50,30.08,29.79,14,4,29,0.06
2013-4-19,55.9,49.3,43.5,43.4,40.3,35.5,87,72,49,30.49,30.08,9,2,13,0.00
2013-4-20,57.2,46.6,34.5,40.5,34.1,26.6,96,65,33,30.56,30.36,8,2,13,0.00
2013-4-21,58.1,46.3,31.1,41.7,36.0,29.3,95,70,40,30.36,30.02,7,1,12,0.00
2013-4-22,60.4,50.6,42.5,47.6,44.0,40.3,95,79,51,30.03,29.94,7,1,11,0.00
2013-4-23,69.7,57.8,48.8,52.0,48.7,47.2,95,74,50,30.21,29.98,9,2,14,0.00
2013-4-24,68.5,57.5,46.3,56.3,51.0,44.3,94,80,63,30.26,30.19,6,1,14,0.01
2013-4-25,74.2,59.8,50.2,57.8,51.6,48.4,96,77,48,30.24,30.00,8,2,15,0.00
2013-4-26,54.9,49.1,43.5,49.1,38.9,29.8,92,70,41,30.02,29.89,11,2,21,0.12
2013-4-27,53.2,43.9,37.3,41.1,37.1,32.8,89,77,53,30.10,29.89,8,1,14,0.09
2013-4-28,54.3,45.4,33.1,40.8,36.0,31.6,95,71,44,30.10,29.89,6,1,16,0.00
2013-4-29,57.2,50.5,44.5,43.8,38.9,34.9,90,66,46,30.17,29.89,9,3,15,0.00
2013-4-30,58.7,49.5,38.4,41.6,37.5,32.3,90,65,39,30.30,30.17,10,2,14,0.00
2013-5-1,62.7,50.3,38.8,42.5,36.9,31.6,89,64,33,30.31,30.14,8,1,13,0.00
2013-5-2,65.0,53.2,39.8,37.2,29.2,15.3,72,44,17,30.22,30.13,8,2,14,0.00
2013-5-3,66.9,53.8,37.8,47.0,40.8,34.4,90,64,36,30.18,30.02,9,2,14,0.00
2013-5-4,63.2,53.7,44.8,51.4,43.5,38.3,88,70,44,30.13,29.97,13,2,22,0.02
2013-5-5,67.1,56.1,42.0,52.1,47.4,38.8,93,73,56,30.19,30.13,5,1,8,0.00
2013-5-6,72.7,60.5,50.0,51.8,48.2,42.6,90,66,43,30.17,30.03,5,0,8,0.00
2013-5-7,74.3,60.4,43.9,50.8,45.8,41.4,93,62,37,30.07,29.84,10,2,13,0.00
2013-5-8,65.0,57.6,48.5,55.7,50.5,45.1,95,78,62,29.84,29.68,9,1,17,0.03
2013-5-9,59.2,51.2,43.1,49.1,44.0,39.8,92,78,51,29.84,29.67,9,2,23,0.07
2013-5-10,62.7,54.3,48.6,50.3,47.3,44.4,89,78,53,29.92,29.68,10,2,18,0.01
2013-5-11,57.1,50.0,43.6,52.0,44.3,40.3,95,82,60,29.92,29.79,15,2,26,0.11
2013-5-12,58.6,50.4,41.5,51.1,44.3,39.1,94,81,52,30.01,29.90,10,2,16,0.02
2013-5-13,60.1,53.0,47.7,51.0,44.2,38.1,95,74,50,29.91,29.80,13,3,22,0.05
2013-5-14,55.2,48.6,44.4,48.1,43.8,40.3,96,84,60,29.81,29.21,11,2,18,0.29
2013-5-15,59.1,48.5,42.4,45.6,41.5,37.9,91,77,54,29.55,29.14,12,2,21,0.10
2013-5-16,62.8,50.6,36.8,47.7,40.6,35.6,97,72,40,29.56,29.46,6,0,11,0.01
2013-5-17,54.2,49.6,41.1,45.9,43.3,39.1,95,79,67,29.81,29.56,5,1,9,0.00
2013-5-18,59.9,53.8,48.0,46.5,44.9,43.0,87,73,59,29.80,29.69,9,-2,16,0.00
2013-5-19,65.9,57.0,47.4,50.6,47.5,43.6,91,72,57,29.88,29.77,6,1,11,0.00
2013-5-20,62.9,57.9,51.6,57.9,53.6,48.8,91,86,81,29.89,29.83,6,2,11,0.02
2013-5-21,61.2,56.7,53.4,57.0,51.4,48.4,91,82,69,30.06,29.89,6,2,11,0.02
2013-5-22,58.4,52.7,48.0,50.5,45.1,37.1,93,76,54,30.09,30.01,10,3,15,0.00
2013-5-23,51.9,47.1,43.5,40.1,37.7,31.7,82,70,50,30.01,29.87,15,4,25,0.02
2013-5-24,48.2,44.7,42.4,46.1,41.1,37.9,94,87,77,30.02,29.62,14,4,20,0.18
2013-5-25,60.2,50.7,41.2,43.9,40.7,37.5,94,71,44,30.16,30.02,6,1,12,0.00
2013-5-26,66.3,55.4,43.0,45.7,41.4,38.1,89,61,39,30.13,29.95,9,2,12,0.00
2013-5-27,65.0,55.0,41.0,46.2,41.0,32.3,88,62,31,29.95,29.62,8,1,16,0.00
2013-5-28,53.9,51.3,48.8,51.9,48.0,42.7,96,89,67,29.61,29.47,3,0,5,0.53
2013-5-29,55.5,51.3,45.5,52.9,48.4,43.8,95,90,79,29.76,29.56,7,2,12,0.02
2013-5-30,59.5,55.0,52.0,53.1,51.5,50.0,97,88,78,29.99,29.74,5,2,12,0.17
2013-5-31,70.3,60.6,52.6,56.6,52.1,48.8,89,75,55,30.11,29.98,6,2,12,0.00
2013-6-1,66.3,57.8,50.8,50.2,45.9,42.1,82,65,47,30.30,30.11,9,3,17,0.00
2013-6-2,66.0,57.6,48.6,47.1,43.9,41.2,86,62,43,30.43,30.30,7,2,12,0.00
2013-6-3,66.9,57.1,46.0,48.3,44.5,40.8,93,65,42,30.48,30.38,8,2,14,0.00
2013-6-4,70.0,58.7,46.4,49.2,43.5,38.6,84,59,39,30.42,30.19,11,3,18,0.00
2013-6-5,70.5,58.2,48.0,50.7,47.2,43.6,86,69,46,30.22,30.06,7,2,12,0.00
2013-6-6,73.1,60.2,47.8,54.5,48.8,44.1,88,67,49,30.18,30.10,8,3,14,0.00
2013-6-7,70.3,58.9,49.0,55.2,49.3,44.1,95,72,52,30.21,30.15,9,2,16,0.20
2013-6-8,65.0,56.7,48.4,48.7,46.5,44.1,86,69,51,30.21,30.04,10,3,17,0.00
2013-6-9,59.4,55.1,51.2,48.4,46.2,44.6,82,72,63,30.07,29.95,8,3,15,0.00
2013-6-10,61.6,55.3,50.3,48.9,45.0,42.1,80,69,59,30.00,29.94,6,1,10,0.00
2013-6-11,64.3,57.2,48.3,60.7,52.7,44.1,92,85,80,29.96,29.88,7,1,12,0.01
2013-6-12,64.3,60.3,56.6,59.6,56.6,52.8,94,88,75,29.88,29.78,5,2,13,0.06
2013-6-13,64.9,58.4,52.7,55.7,52.0,47.1,93,80,65,30.03,29.78,15,2,24,0.00
2013-6-14,68.7,57.7,46.3,53.5,48.7,40.6,93,74,40,30.06,29.78,9,2,15,0.00
2013-6-15,64.4,57.6,51.4,56.5,50.7,45.5,93,79,55,29.88,29.68,10,2,15,0.20
2013-6-16,65.6,58.5,51.9,53.3,50.0,46.6,90,74,60,29.95,29.87,5,0,8,0.01
2013-6-17,69.8,62.2,55.3,52.9,50.7,48.6,82,67,49,29.96,29.88,9,3,16,0.00
2013-6-18,69.6,63.7,56.8,62.7,57.3,51.6,92,80,70,29.96,29.89,5,1,8,0.00
2013-6-19,79.4,68.5,58.9,64.0,60.1,57.1,96,77,51,29.97,29.89,9,1,15,0.01
2013-6-20,72.3,65.6,58.8,63.4,59.8,55.4,89,82,69,29.94,29.78,6,2,11,0.00
2013-6-21,74.0,63.4,56.3,61.8,57.9,53.4,93,83,63,29.86,29.76,4,1,10,0.00
2013-6-22,66.0,58.5,53.2,58.0,53.4,50.5,96,83,67,29.86,29.65,6,2,15,0.09
2013-6-23,63.7,58.6,54.4,54.6,52.5,50.2,92,81,68,30.01,29.65,13,4,22,0.01
2013-6-24,62.0,56.9,52.0,50.8,46.7,43.4,87,69,52,30.28,30.01,13,4,17,0.00
2013-6-25,69.4,60.1,50.7,50.3,47.2,43.1,87,64,40,30.41,30.28,7,1,11,0.00
2013-6-26,70.7,61.0,48.0,54.2,49.8,45.4,93,69,46,30.43,30.33,7,1,12,0.00
2013-6-27,67.9,59.3,53.3,54.2,50.3,47.1,94,73,53,30.37,30.17,8,2,13,0.05
2013-6-28,71.8,61.6,54.1,64.1,58.3,52.4,96,89,74,30.17,30.03,9,2,14,0.04
2013-6-29,71.9,63.7,56.0,58.4,50.9,46.3,86,65,46,30.23,30.07,9,3,15,0.00
2013-6-30,80.4,68.0,58.3,61.6,57.5,52.6,94,71,44,30.23,30.05,9,2,14,0.00
2013-7-1,69.0,62.5,56.5,54.0,51.4,48.1,86,68,50,30.07,29.97,8,2,14,0.00
2013-7-2,64.3,58.5,51.2,55.3,51.4,47.8,89,78,60,29.99,29.66,6,-2,12,0.00
2013-7-3,68.8,62.2,57.6,58.8,56.7,53.3,96,83,65,30.00,29.61,9,2,16,0.06
2013-7-4,77.0,65.2,52.9,63.9,57.6,50.6,93,78,57,30.25,30.00,7,1,11,0.00
2013-7-5,79.8,66.1,51.7,61.4,54.6,49.3,95,70,42,30.41,30.25,6,1,10,0.00
2013-7-6,85.1,70.0,54.8,61.6,56.3,50.8,90,64,38,30.41,30.32,5,1,8,0.00
2013-7-7,85.4,73.5,60.9,62.1,58.2,52.8,92,62,34,30.49,30.39,7,2,13,0.00
2013-7-8,81.3,71.2,60.2,62.1,56.4,52.3,82,61,43,30.51,30.39,8,2,15,0.00
2013-7-9,81.2,68.7,55.0,55.5,48.0,38.9,83,52,25,30.43,30.24,7,2,13,0.00
2013-7-10,76.3,66.6,55.9,59.0,53.4,47.9,78,63,48,30.28,30.22,10,2,16,0.00
2013-7-11,74.9,62.3,53.1,53.6,48.7,45.2,81,63,41,30.29,30.20,7,2,13,0.00
2013-7-12,79.5,65.4,54.2,58.3,53.6,49.1,83,67,45,30.29,30.19,5,1,10,0.00
2013-7-13,89.3,73.8,57.8,65.8,60.6,54.9,92,66,39,30.23,30.18,7,1,13,0.00
2013-7-14,84.5,74.1,61.1,64.8,59.2,53.0,89,62,41,30.24,30.15,8,1,14,0.00
2013-7-15,89.5,75.7,63.5,59.6,50.8,37.8,71,45,22,30.22,30.15,5,1,10,0.00
2013-7-16,88.1,75.1,61.1,61.1,58.4,56.8,88,59,37,30.21,30.13,0,0,1,0.00
2013-7-17,91.1,76.0,61.2,61.4,57.9,54.9,81,56,33,30.26,30.16,6,0,10,0.00
2013-7-18,84.8,74.7,64.7,61.0,58.0,54.1,78,58,38,30.30,30.23,7,2,17,0.00
2013-7-19,82.9,71.9,60.1,60.6,55.6,49.6,72,57,41,30.30,30.18,11,3,17,0.00
2013-7-20,75.7,68.2,62.0,60.7,59.0,56.5,87,73,59,30.24,30.13,10,3,15,0.00
2013-7-21,80.5,69.7,63.0,62.6,59.3,54.4,84,71,53,30.16,30.00,8,-1,11,0.00
2013-7-22,93.8,76.5,64.1,67.0,62.5,59.3,91,66,34,30.04,29.92,9,1,13,0.00
2013-7-23,85.6,74.0,64.3,70.0,64.2,58.3,86,72,54,29.94,29.86,7,1,10,0.00
2013-7-24,83.7,69.5,57.6,61.8,59.0,55.1,93,71,46,29.96,29.90,5,0,9,0.00
2013-7-25,80.7,69.7,60.4,66.2,61.2,55.5,95,76,48,29.93,29.85,7,1,14,0.00
2013-7-26,83.3,68.7,55.4,60.0,56.3,51.8,95,68,43,29.91,29.82,5,0,9,0.00
2013-7-27,84.0,67.3,56.2,66.5,57.1,51.3,95,73,39,29.84,29.57,11,1,16,0.00
2013-7-28,77.0,67.3,57.6,61.6,58.8,55.9,96,76,54,29.77,29.58,9,2,15,0.00
2013-7-29,75.0,65.9,59.1,63.6,59.2,55.7,96,80,55,29.96,29.76,5,1,17,0.00
2013-7-30,73.2,63.8,58.4,65.6,60.4,56.7,95,89,71,29.97,29.84,4,0,9,0.00
2013-7-31,77.9,67.7,60.9,66.7,61.8,57.9,91,82,66,29.98,29.93,4,1,12,0.00
2013-8-1,92.5,77.1,61.9,68.8,63.9,60.1,95,67,36,29.93,29.65,11,3,19,0.00
2013-8-2,80.4,69.6,62.5,65.4,60.4,54.3,91,74,44,29.82,29.73,5,1,12,0.01
2013-8-3,77.3,66.9,58.2,60.1,57.3,53.8,95,73,48,30.08,29.79,5,1,15,0.00
2013-8-4,76.5,66.4,56.6,59.8,56.8,53.7,95,73,49,30.10,30.02,8,1,14,0.00
2013-8-5,76.5,65.8,60.8,63.0,59.1,55.1,95,80,54,30.02,29.75,7,2,15,0.00
2013-8-6,74.3,64.3,53.0,58.7,53.3,48.7,95,70,43,30.03,29.90,7,1,11,0.00
2013-8-7,74.0,65.7,57.7,57.8,52.3,48.6,91,64,44,30.02,29.89,7,1,14,0.00
2013-8-8,77.5,65.3,51.7,57.9,52.9,48.4,93,67,41,30.11,30.02,4,0,8,0.00
2013-8-9,74.5,66.7,60.9,63.2,55.8,49.8,94,70,47,30.17,30.02,9,3,17,0.00
2013-8-10,73.3,64.4,56.7,54.1,50.9,47.8,79,63,45,30.19,30.12,8,2,12,0.00
2013-8-11,72.9,65.9,60.5,59.0,53.8,49.2,84,66,45,30.12,29.99,9,2,15,0.00
2013-8-12,68.8,61.9,54.9,54.3,50.1,45.0,88,67,44,30.08,29.98,10,3,16,0.00
2013-8-13,67.5,59.5,49.7,56.7,51.2,46.6,92,75,51,30.20,30.08,9,2,14,0.00
2013-8-14,75.5,62.6,50.2,60.2,55.5,48.8,97,80,49,30.22,30.13,4,0,9,0.09
2013-8-15,76.0,67.3,61.6,66.5,61.9,58.3,97,84,64,30.13,30.00,7,0,13,0.03
2013-8-16,75.7,66.6,61.8,64.8,61.8,58.3,93,85,68,30.00,29.92,5,0,10,0.05
2013-8-17,69.5,62.5,55.6,60.8,57.7,54.5,97,85,66,29.98,29.72,6,1,13,0.02
2013-8-18,74.0,63.7,59.0,62.1,59.3,53.4,95,87,53,29.89,29.71,6,0,12,0.02
2013-8-19,72.3,63.5,54.2,54.5,51.5,48.3,88,67,45,30.30,29.89,8,2,13,0.00
2013-8-20,77.3,64.1,51.4,56.9,52.1,48.3,92,68,41,30.36,30.27,4,0,6,0.00
2013-8-21,81.4,66.5,52.4,58.8,54.5,50.2,95,68,39,30.29,30.12,4,1,9,0.02
2013-8-22,73.9,65.6,61.0,65.8,62.3,58.7,96,89,70,30.15,30.04,5,1,7,0.30
2013-8-23,81.2,70.2,60.4,63.5,60.3,55.4,96,74,45,30.04,29.84,8,2,12,0.00
2013-8-24,67.9,63.5,58.2,62.8,60.4,55.0,95,90,77,29.86,29.80,10,2,15,0.46
2013-8-25,75.4,64.2,55.5,63.4,58.0,51.5,95,81,58,30.03,29.82,10,2,15,0.11
2013-8-26,77.5,67.4,57.0,62.0,56.7,50.0,92,71,45,30.08,30.01,6,1,12,0.00
2013-8-27,74.6,62.5,50.6,58.5,52.1,48.0,96,72,43,30.11,30.02,4,0,7,0.00
2013-8-28,76.2,64.0,52.5,57.1,52.9,48.7,94,70,42,30.21,30.11,5,0,7,0.00
2013-8-29,76.9,65.0,55.8,59.7,55.9,53.1,94,74,49,30.19,30.11,8,1,14,0.00
2013-8-30,77.4,66.7,56.8,62.5,58.8,55.0,95,77,54,30.14,30.02,10,2,15,0.00
2013-8-31,68.8,62.8,56.5,60.5,49.0,42.3,92,63,40,30.39,30.11,7,2,13,0.00
2013-9-1,70.8,59.6,47.2,53.3,48.6,43.1,89,68,48,30.44,30.32,7,2,13,0.00
2013-9-2,76.8,65.0,52.0,60.6,56.0,49.6,93,74,55,30.34,30.26,7,2,12,0.00
2013-9-3,80.2,66.3,55.4,63.2,59.1,53.7,96,79,53,30.35,30.24,0,0,0,0.00
2013-9-4,82.8,68.2,54.2,63.3,57.5,53.1,97,72,41,30.26,29.98,0,0,0,0.00
2013-9-5,82.9,69.1,55.4,64.7,58.1,51.8,96,71,45,29.98,29.73,0,-4,0,0.00
2013-9-6,65.6,59.7,53.7,59.0,54.2,49.6,93,82,61,29.83,29.69,0,0,0,0.13
2013-9-7,67.3,57.3,50.6,54.0,49.6,45.8,91,77,52,30.03,29.82,5,0,14,0.01
2013-9-8,63.8,53.6,46.1,53.1,48.9,44.0,96,85,57,30.07,30.02,4,0,10,0.42
2013-9-9,56.6,52.6,45.9,54.8,50.9,44.5,96,94,91,30.05,29.95,6,1,9,0.24
2013-9-10,61.8,55.8,49.5,52.1,49.2,46.9,93,79,61,30.14,30.04,10,4,17,0.00
2013-9-11,63.0,57.4,53.6,54.2,50.8,47.8,95,79,63,30.17,30.10,8,3,15,0.09
2013-9-12,67.3,59.2,54.6,59.3,56.1,53.4,97,90,71,30.10,30.06,4,0,6,0.06
2013-9-13,67.1,62.3,57.1,64.2,61.0,56.0,98,96,87,30.06,29.85,3,0,7,0.82
2013-9-14,57.5,52.6,47.8,55.9,49.8,45.6,97,90,75,30.06,29.86,6,2,14,0.09
2013-9-15,60.4,53.2,42.7,59.2,49.9,41.9,98,89,62,30.06,29.54,10,1,15,0.08
2013-9-16,58.3,52.1,45.4,50.5,43.8,40.9,89,74,56,29.64,29.56,13,4,22,0.00
2013-9-17,59.6,52.9,44.5,58.4,49.2,41.1,96,87,70,29.64,29.33,5,1,10,0.19
2013-9-18,60.0,55.2,50.1,54.8,49.1,44.8,94,80,59,29.86,29.39,9,3,16,0.01
2013-9-19,61.7,53.7,43.1,60.2,50.3,41.2,95,89,72,29.89,29.72,6,1,12,0.02
2013-9-20,64.9,57.1,50.5,52.1,50.3,47.7,91,79,61,30.17,29.86,6,2,10,0.00
2013-9-21,67.2,58.3,49.3,61.2,54.9,47.3,96,89,79,30.30,30.17,3,0,7,0.00
2013-9-22,67.9,62.1,55.5,62.1,59.6,54.1,97,92,80,30.36,30.29,4,1,7,0.00
2013-9-23,65.9,59.9,53.6,60.1,57.3,52.8,98,91,80,30.33,30.10,0,0,1,0.00
2013-9-24,68.8,57.7,47.6,62.2,55.1,46.8,98,92,77,30.10,29.91,3,0,6,0.01
2013-9-25,70.6,62.3,55.8,61.9,58.1,53.9,97,87,70,29.91,29.80,3,0,6,0.01
2013-9-26,66.8,60.7,55.6,59.7,53.7,50.2,90,78,56,30.04,29.89,6,2,12,0.00
2013-9-27,64.0,56.6,49.3,52.5,50.7,47.6,95,81,62,30.04,29.91,8,2,13,0.00
2013-9-28,65.7,59.7,54.6,58.2,53.9,50.8,91,81,64,29.91,29.72,9,3,16,0.02
2013-9-29,64.5,59.8,57.5,54.9,53.5,52.4,86,80,70,29.74,29.68,9,4,16,0.00
2013-9-30,66.2,60.3,55.9,56.2,53.7,50.3,90,79,61,29.76,29.67,8,2,15,0.00
2013-10-1,63.4,58.4,53.4,57.5,53.2,50.8,91,83,73,29.81,29.74,7,2,15,0.00
2013-10-2,70.1,62.0,57.5,61.7,57.4,52.8,95,85,72,29.87,29.77,7,2,12,0.00
2013-10-3,66.0,61.1,55.7,63.7,59.2,54.6,98,94,88,29.86,29.68,8,2,13,0.10
2013-10-4,69.7,63.8,57.5,62.9,60.2,55.6,95,88,75,29.93,29.66,6,1,11,0.02
2013-10-5,65.9,59.6,55.9,58.7,56.1,52.6,96,89,74,30.24,29.93,5,1,7,0.00
2013-10-6,68.4,55.6,44.9,55.1,50.7,43.8,98,85,59,30.29,30.24,0,0,0,0.00
2013-10-7,66.7,57.7,49.7,58.5,54.1,48.4,98,89,72,30.29,30.23,4,0,8,0.01
2013-10-8,67.5,61.5,53.6,60.4,57.7,52.2,97,88,73,30.27,30.21,4,0,8,0.00
2013-10-9,62.7,56.7,47.8,57.9,50.7,40.3,94,81,67,30.23,29.97,11,3,19,0.00
2013-10-10,53.4,48.8,45.3,42.9,40.0,38.1,82,72,60,30.12,30.01,11,4,19,0.00
2013-10-11,56.6,52.5,47.2,52.9,48.4,40.3,95,86,69,30.11,29.95,9,4,20,0.16
2013-10-12,58.4,52.6,46.4,53.6,47.5,43.3,95,83,60,30.10,29.95,7,2,15,0.06
2013-10-13,53.0,50.3,47.1,52.2,48.9,45.5,97,95,91,30.00,29.77,11,2,16,0.38
2013-10-14,54.0,49.4,47.3,49.7,47.6,46.2,97,94,84,29.78,29.70,8,1,13,0.15
2013-10-15,55.5,49.7,44.1,50.2,46.9,42.6,96,90,79,29.95,29.74,7,2,11,0.00
2013-10-16,59.3,50.2,41.7,58.0,48.2,40.6,98,93,76,29.96,29.67,8,1,15,0.20
2013-10-17,64.1,56.4,50.8,57.3,53.0,48.9,96,89,77,30.00,29.81,8,1,14,0.02
2013-10-18,62.9,56.5,50.5,58.0,53.9,49.4,98,91,77,30.01,29.76,8,2,13,0.00
2013-10-19,63.9,58.6,54.1,61.0,56.4,52.4,96,92,86,29.76,29.62,6,1,9,0.08
2013-10-20,62.9,56.7,52.8,58.0,54.5,51.7,97,92,82,29.74,29.62,6,1,13,0.39
2013-10-21,65.0,59.7,53.7,60.0,57.1,52.9,98,91,81,29.74,29.59,7,2,15,0.02
2013-10-22,65.9,61.6,56.1,60.9,58.3,53.6,94,89,83,29.59,29.32,9,3,14,0.28
2013-10-23,61.6,56.6,45.6,56.9,52.4,44.0,95,86,69,29.85,29.25,9,2,15,0.06
2013-10-24,62.7,52.2,41.0,54.9,48.9,39.9,98,89,73,29.98,29.80,6,1,9,0.00
2013-10-25,65.5,60.4,56.5,60.9,56.8,53.6,97,88,79,29.81,29.58,6,2,13,0.05
2013-10-26,63.5,59.2,57.0,57.7,55.7,53.1,93,88,80,29.70,29.48,6,2,16,0.04
2013-10-27,61.5,56.1,51.6,56.1,52.3,48.2,96,87,67,29.48,29.21,7,1,17,0.52
2013-10-28,60.3,53.2,45.6,59.2,50.1,44.0,97,89,70,29.58,28.89,22,2,38,0.54
2013-10-29,54.2,47.3,39.9,47.2,43.1,38.1,96,86,64,30.06,29.59,10,2,17,0.01
2013-10-30,57.9,48.6,36.4,52.2,44.7,35.4,97,87,70,30.18,30.06,4,0,11,0.01
2013-10-31,55.9,54.4,52.9,53.9,52.2,50.5,96,92,87,30.06,29.93,4,0,10,0.05
2013-11-1,58.6,54.6,51.5,55.4,52.0,49.3,95,91,87,29.93,29.53,4,0,8,0.03
2013-11-2,60.2,52.6,47.6,53.7,48.3,43.1,97,86,72,29.57,29.38,7,1,17,0.02
2013-11-3,53.3,48.2,44.9,46.4,42.7,39.7,96,81,68,29.58,29.03,8,2,20,0.37
2013-11-4,50.3,44.4,37.5,46.4,40.5,35.9,96,87,70,29.49,29.00,11,2,19,0.23
2013-11-5,53.9,47.6,36.7,50.8,44.0,35.1,97,88,69,29.51,29.25,14,2,26,0.23
2013-11-6,59.1,53.7,48.3,57.4,51.4,44.6,98,92,85,29.55,29.46,4,1,13,0.07
2013-11-7,58.5,49.7,41.5,56.1,46.0,39.8,95,87,72,29.77,29.51,10,1,16,0.00
2013-11-8,53.0,44.7,39.4,50.2,43.3,38.3,98,95,89,29.77,29.57,8,1,14,0.45
2013-11-9,45.2,40.9,35.9,44.4,40.1,35.1,98,97,95,29.77,29.60,4,0,7,0.24
2013-11-10,49.3,42.2,34.7,43.1,38.3,33.3,98,87,62,30.26,29.61,8,2,15,0.02
2013-11-11,55.2,49.1,35.0,54.6,47.6,33.7,98,95,87,30.25,30.13,8,1,14,0.09
2013-11-12,55.2,50.3,37.7,54.6,47.7,36.0,98,91,76,30.51,30.14,7,1,14,0.06
2013-11-13,52.0,41.4,32.3,44.7,38.3,31.3,98,89,71,30.57,30.20,3,0,7,0.01
2013-11-14,49.2,46.3,40.7,45.4,41.0,35.9,91,82,70,30.41,30.12,13,5,27,0.00
2013-11-15,49.7,42.0,35.5,40.4,36.3,33.4,95,81,67,30.53,30.41,5,1,11,0.00
2013-11-16,47.9,40.5,30.2,44.5,38.4,28.9,97,92,83,30.52,30.37,5,0,10,0.00
2013-11-17,49.4,47.6,45.6,46.8,45.2,43.8,96,92,87,30.37,30.01,3,0,4,0.02
2013-11-18,49.5,47.2,44.4,47.2,45.6,40.5,98,94,86,30.01,29.75,6,1,12,0.02
2013-11-19,44.4,38.9,32.9,40.4,33.7,29.2,92,82,64,30.06,29.79,8,2,14,0.01
2013-11-20,45.6,37.9,28.2,43.1,35.1,26.3,95,90,80,30.04,29.40,14,2,24,0.08
2013-11-21,47.1,41.6,38.0,39.9,37.5,34.8,96,85,65,29.93,29.42,8,2,17,0.01
2013-11-22,46.8,40.9,37.4,38.4,36.3,33.6,94,84,69,30.16,29.93,5,1,12,0.00
2013-11-23,46.2,41.5,35.5,40.1,38.1,33.9,95,88,76,30.31,30.15,4,1,10,0.00
2013-11-24,47.0,43.7,39.8,43.3,39.5,36.4,89,85,78,30.56,30.31,5,1,14,0.01
2013-11-25,45.4,42.2,39.7,39.0,37.8,36.4,92,85,76,30.68,30.56,4,1,9,0.00
2013-11-26,46.0,40.9,31.1,39.9,35.8,29.0,94,82,69,30.72,30.57,5,1,7,0.00
2013-11-27,50.9,46.1,42.5,48.1,44.0,39.0,95,93,86,30.57,30.47,2,0,4,0.01
2013-11-28,50.6,48.1,45.9,46.6,45.6,44.0,95,91,85,30.57,30.51,2,0,4,0.00
2013-11-29,50.3,47.1,44.1,44.6,42.2,38.3,95,83,69,30.51,30.18,10,3,18,0.00
2013-11-30,48.2,43.1,34.1,41.4,37.6,31.9,93,81,76,30.46,30.18,7,2,14,0.00
2013-12-1,49.1,42.3,32.7,43.8,39.5,30.9,96,90,81,30.55,30.44,3,0,5,0.00
2013-12-2,49.5,46.0,41.4,44.2,41.9,37.8,93,86,75,30.57,30.44,2,0,6,0.00
2013-12-3,44.3,42.8,40.8,40.2,37.4,35.4,88,81,77,30.44,30.32,5,0,9,0.00
2013-12-4,47.8,41.2,31.2,44.5,37.1,29.8,96,86,66,30.50,30.30,5,1,10,0.00
2013-12-5,50.9,41.0,29.4,45.6,35.9,28.4,97,83,59,30.48,30.03,15,3,24,0.02
2013-12-6,47.2,42.6,37.5,42.7,36.9,32.4,93,80,71,30.39,30.24,9,2,14,0.00
2013-12-7,48.3,45.1,41.9,44.5,42.7,40.3,96,91,82,30.35,30.27,4,0,8,0.00
2013-12-8,53.1,45.4,38.9,47.1,42.7,37.3,96,90,79,30.32,30.24,5,0,9,0.00
2013-12-9,52.2,44.0,36.6,48.3,42.5,35.6,98,94,84,30.41,30.31,3,0,5,0.02
2013-12-10,47.8,39.5,31.8,45.8,38.2,31.0,98,95,89,30.47,30.41,3,0,5,0.00
2013-12-11,38.9,34.4,31.9,38.4,33.6,31.4,98,97,96,30.45,30.32,2,0,3,0.02
2013-12-12,47.2,40.1,30.9,46.9,39.6,30.4,99,98,96,30.32,30.19,3,0,5,0.01
2013-12-13,54.5,50.1,43.5,50.3,47.5,42.4,97,91,78,30.19,30.02,5,1,11,0.07
2013-12-14,52.4,46.1,36.9,48.5,43.1,35.4,96,89,77,30.31,30.05,9,2,22,0.04
2013-12-15,54.3,51.8,44.7,52.8,50.3,43.1,96,94,89,30.17,29.99,9,2,18,0.21
2013-12-16,55.1,51.9,44.2,53.0,50.4,43.1,97,94,90,30.12,29.94,8,3,16,0.39
2013-12-17,44.7,42.2,39.8,44.2,41.1,38.9,98,96,92,30.28,29.97,4,1,7,0.25
2013-12-18,50.6,46.7,40.1,48.5,45.0,39.6,99,94,86,29.98,29.30,13,3,25,0.04
2013-12-19,48.2,43.2,36.4,46.4,39.3,35.3,96,86,69,29.86,29.32,12,1,19,0.13
2013-12-20,51.4,43.1,34.6,46.8,39.9,33.6,97,89,76,30.18,29.87,10,2,20,0.02
2013-12-21,53.2,51.1,47.9,50.9,48.6,42.8,95,91,76,30.06,29.72,11,4,22,0.11
2013-12-22,50.8,46.1,39.3,45.3,40.8,35.5,89,82,68,29.93,29.73,8,2,17,0.00
2013-12-23,52.5,48.2,39.3,51.1,45.7,35.8,96,91,86,29.92,28.87,13,5,29,0.02
2013-12-24,52.2,46.1,41.3,50.6,43.4,38.6,96,90,80,28.99,28.80,14,3,32,0.29
2013-12-25,44.1,40.0,37.0,40.9,38.1,35.5,96,93,87,29.17,28.93,5,1,12,0.08
2013-12-26,46.2,38.8,34.3,43.4,37.6,33.5,98,95,81,29.49,29.17,11,1,22,0.00
2013-12-27,51.7,48.2,44.2,50.6,43.1,37.2,96,83,72,29.27,29.01,14,4,28,0.14
2013-12-28,47.6,40.0,31.7,40.0,36.0,30.4,96,86,74,29.72,29.26,3,0,8,0.00
2013-12-29,46.7,37.7,29.4,43.0,35.2,28.3,98,91,77,30.08,29.72,6,1,12,0.01
2013-12-30,50.8,47.2,41.4,48.1,44.4,39.8,95,90,81,30.00,29.68,12,4,24,0.02
2013-12-31,51.8,46.3,41.1,47.9,44.0,38.7,96,92,85,29.85,29.55,12,3,21,0.17
2014-1-1,51.4,47.8,42.6,49.8,45.9,40.7,96,93,86,29.58,29.04,16,1,26,0.07
2014-1-2,51.4,47.6,41.7,48.5,44.6,40.1,96,89,76,29.45,29.07,9,2,20,0.10